Torna al catalogo

STARLINK-37148

AttivoComunicazioniSSO
NORAD 68310·PAYLOAD·🇺🇸 United States

Lanciato Mar 20, 2026 da Vandenberg Space Force Base

Loading…

Prossimi Passaggi (prossime 24 ore)

TLE

AggiornatoSource: CelesTrak SupGP

Epoca: Sep 14, 2026, 21:39 UTC

1 68310C 26057S   26257.90256944 -.00014298  00000+0 -44370-3 0  2572
2 68310  97.2854  23.4444 0001202  99.8848 125.8797 15.33456810    13

Traccia STARLINK-37148 in tempo reale con AllMySat

Download on the App Store